This demonstration page uses our WeatherBlox Daily Observations layout. Learn more.

Left ArrowRight Arrow

38.89511, -77.03637

Hourly Observations for January 9, 2019

Temp ( °F °C ) Dew Point ( °F °C ) Humidity (%) Winds ( mph kmh ) Pressure ( in mb ) Visibility ( mi km ) Precip ( " mm )
12:52 am 00:52 Mostly Clear 54 12.2 34 1.1 47 47 WNW 17 28 29.72 1006 10 16 0.00 0.00
1:52 am 01:52 Mostly Clear 50 10 34 1.1 54 54 WNW 8 13 29.77 1008 10 16 0.00 0.00
2:52 am 02:52 Mostly Clear 50 10 29 -1.7 44 44 W 14 22 29.79 1009 10 16 0.00 0.00
3:52 am 03:52 Mostly Clear 49 9.4 26 -3.3 41 41 WNW 12 19 29.79 1009 10 16 0.00 0.00
4:52 am 04:52 Mostly Cloudy 48 8.9 24 -4.4 39 39 WNW 14 22 29.78 1009 10 16 0.00 0.00
5:52 am 05:52 Mostly Clear 46 7.8 23 -5 40 40 W 12 19 29.80 1009 10 16 0.00 0.00
6:52 am 06:52 Mostly Cloudy 46 7.8 22 -5.6 38 38 WNW 13 20 29.80 1009 10 16 0.00 0.00
7:52 am 07:52 Mostly Cloudy 46 7.8 23 -5 40 40 WNW 12 19 29.79 1009 10 16 0.00 0.00
8:52 am 08:52 Mostly Cloudy 47 8.3 24 -4.4 41 41 W 6 9 29.80 1009 10 16 0.00 0.00
9:52 am 09:52 Cloudy 48 8.9 25 -3.9 41 41 W 10 17 29.80 1009 10 16 0.00 0.00
10:52 am 10:52 Mostly Cloudy 49 9.4 24 -4.4 38 38 WNW 13 20 29.79 1009 10 16 0.00 0.00
11:52 am 11:52 Cloudy 47 8.3 26 -3.3 44 44 NW 17 28 29.77 1008 10 16 0.00 0.00
12:52 pm 12:52 Cloudy 47 8.3 27 -2.8 46 46 W 22 35 29.76 1008 10 16 0.00 0.03
1:52 pm 13:52 Cloudy with Light Rain/Snow 45 7.2 28 -2.2 52 52 NNW 21 33 29.77 1008 10 16 0.00 0.03
2:32 pm 14:32 Cloudy 45 7.2 26 -3.3 48 48 WNW 22 35 29.77 1008 10 16 0.00 0.03
2:52 pm 14:52 Cloudy with Light Rain 43 6.1 27 -2.8 53 53 NNW 35 56 29.80 1009 10 16 0.00 0.03
3:52 pm 15:52 Cloudy 42 5.6 26 -3.3 53 53 WNW 17 28 29.83 1010 10 16 0.00 0.03
4:10 pm 16:10 Cloudy with Light Rain/Snow 39 3.9 29 -1.7 67 67 NNW 24 39 29.85 1011 10 16 0.00 0.03
4:52 pm 16:52 Cloudy 39 3.9 24 -4.4 55 55 NW 18 30 29.86 1011 10 16 0.00 0.03
5:52 pm 17:52 Cloudy 39 3.9 19 -7.2 45 45 WNW 17 28 29.88 1012 10 16 0.00 0.00
6:52 pm 18:52 Cloudy 38 3.3 19 -7.2 46 46 WNW 23 37 29.89 1012 10 16 0.00 0.00
7:52 pm 19:52 Cloudy 36 2.2 21 -6.1 55 55 WNW 20 31 29.89 1012 10 16 0.00 0.00
8:52 pm 20:52 Cloudy 36 2.2 17 -8.3 46 46 WNW 15 24 29.91 1013 10 16 0.00 0.00
9:52 pm 21:52 Cloudy 35 1.7 16 -8.9 46 46 WNW 17 28 29.91 1013 10 16 0.00 0.00
10:52 pm 22:52 Cloudy 34 1.1 15 -9.4 46 46 WNW 16 26 29.91 1013 10 16 0.00 0.00
11:52 pm 23:52 Mostly Cloudy with Light Snow 34 1.1 16 -8.9 48 48 NW 18 30 29.91 1013 10 16 0.00 0.03

Powered by AerisWeather